Location: Demmingen
(48.6757°N, 10.4375°E)
Time: 02:41:44
(UTC+00:00)

Cosmos 1954 Rocket - Pass Details

Date: 23 May 2024
Orbit: 750 x 779 km, 74.0° (Epoch: 13 June)

Event Time Altitude Azimuth Distance (km) Brightness Sun altitude
Exits shadow 00:48:45 29° 224° (SW) 1,400 4.8 -17.6°
Maximum altitude 00:51:25 64° 296° (WNW) 867 4.2 -17.4°
Drops below altitude 10° 00:56:42 10° 18° (NNE) 2,340 7.8 -17.1°
Sets 00:59:07 0° 22° (NNE) 3,269 9.1 -16.9°
